Погода в Риме

Италия     41°54′09″N   12°29′46″E
темп.,
°C
ветер,
м/с
пор.,
м/с
влажн.,
%
обл.,
%
осадки,
мм/ч
давл.,
гПа
погр.,
м
16 мая, вс
вс1623:00+14ю1374100 0.0 1014112
02:00+14юв2377100 0.0 101377
05:00+14вюв2269100 0.0 101249
08:00+16юв2563100 0.0 1012236
11:00+20ю4648100 0.0 10131158
14:00+22ю564298 0.0 10121466
17:00+18ю2661100 0.0 1011250
20:00+17ю3667100 0.0 1010192
17 мая, пн
пн1723:00+15ю1275100 0.0 101062
02:00+13юв138192 0.0 101078
05:00+14юв2681100 0.0 1009200
08:00+17ю487999 0.1 1010643
11:00+20юз57595 0.1 10101004
14:00+21юз55485 0.1 10111246
17:00+21ююз3352100 0.0 10101035
20:00+17сз235346 0.0 101174
18 мая, вт
вт1823:00+13с22640 0.0 101318
02:00+11с23785 0.0 101446
05:00+10ссв237812 0.0 101557
08:00+13св226387 0.0 1016189
11:00+20ю1144100 0.0 1016856
14:00+23юз3334100 0.0 10151812
17:00+21ююз55424 0.0 10151015
20:00+16ююз47690 0.0 1015377
19 мая, ср
ср1923:00+14ююв36800 0.0 1016272
02:00+14юв487950 0.0 1016317
05:00+14юв357698 0.0 1016408
08:00+15в34695 0.0 1016353
11:00+21вюв1147100 0.0 10161163
14:00+23юз333898 0.0 10142419
17:00+20юз66515 0.1 10131097
20:00+16ююз466689 0.1 1013583
20 мая, чт
чт2023:00+15ю59665 0.0 1013724
02:00+12юв248725 1.5 1010158
05:00+11ссв3694100 1.3 1010173
08:00+13ссз3477100 1.3 1011303
11:00+17с5751100 0.0 10111405
14:00+18ссв7848100 0.0 10111273
17:00+19св6133687 0.0 10132409
20:00+16с611481 0.0 1016775